Trenton, NJ

4:51 PM EST on November 21, 2019 (GMT -0500)
Trenton Mercer

Weather History for KTTN - October, 2019

Change the Weather History Date:

Thursday, October 17, 2019

  Actual Average Record
Temperature  
Mean Temperature 54 °F 54 °F  
Max Temperature 57 °F 65 °F 87 °F (1938)
Min Temperature 50 °F 43 °F 33 °F (1937)
Degree Days  
Heating Degree Days 11 11  
Month to date heating degree days 101 147  
Since 1 July heating degree days 119 212  
Cooling Degree Days 0 0  
Month to date cooling degree days 26 7  
Year to date cooling degree days 1163 962  
Growing Degree Days 4 (Base 50)    
Moisture  
Dew Point 39 °F    
Average Humidity 59    
Maximum Humidity 71    
Minimum Humidity 47    
Precipitation  
Precipitation T in 0.12 in 1.43 in (1942)
Month to date precipitation 2.21 2.36  
Year to date precipitation 40.87 37.61  
Sea Level Pressure  
Sea Level Pressure 29.45 in    
Wind  
Wind Speed 13 mph ()    
Max Wind Speed 28 mph    
Max Gust Speed 41 mph    
Visibility 10.0 miles    
Events      
T = Trace of Precipitation, MM = Missing Value Source: Averaged Metar Reports

Daily Weather History Graph

Daily Weather History Graph

Search for Another Location

Airport or City:

Astronomy

Oct. 17, 2019 Rise Set
Actual Time 7:11 AM EDT 6:16 PM EDT
Civil Twilight 6:44 AM EDT 6:44 PM EDT
Nautical Twilight 6:12 AM EDT 7:15 PM EDT
Astronomical Twilight 5:41 AM EDT 7:47 PM EDT
Moon 8:46 PM EDT (10/17) 10:41 AM EDT (10/17)
Length of Visible Light 11h 59m
Length of Day
11h 04m
Waning Gibbous, 87% of the Moon is Illuminated
Oct 17
Waning Gibbous
Oct 21
Last Quarter
Oct 27
New
Nov 4
First Quarter
Nov 12
Full

Hourly Weather History & Observations

Time (EDT) Temp. Dew Point Humidity Pressure Visibility Wind Dir Wind Speed Gust Speed Precip Events Conditions
12:53 AM 51.1 °F 39.9 °F 66% 29.35 in 10.0 mi WNW 12.7 mph 29.9 mph N/A   Overcast
1:53 AM 51.1 °F 39.9 °F 66% 29.37 in 10.0 mi West 12.7 mph 21.9 mph N/A   Scattered Clouds
2:53 AM 51.1 °F 41.0 °F 68% 29.35 in 10.0 mi West 13.8 mph - N/A   Clear
3:53 AM 50.0 °F 41.0 °F 71% 29.35 in 10.0 mi West 11.5 mph 18.4 mph N/A   Clear
4:53 AM 51.1 °F 41.0 °F 68% 29.35 in 10.0 mi WSW 11.5 mph 19.6 mph N/A   Mostly Cloudy
5:53 AM 51.1 °F 41.0 °F 68% 29.35 in 10.0 mi West 11.5 mph 19.6 mph N/A   Mostly Cloudy
6:53 AM 52.0 °F 39.0 °F 61% 29.37 in 10.0 mi West 15.0 mph 24.2 mph N/A   Overcast
7:53 AM 51.1 °F 37.9 °F 61% 29.38 in 10.0 mi West 13.8 mph 32.2 mph N/A   Overcast
8:53 AM 52.0 °F 37.9 °F 59% 29.39 in 10.0 mi West 17.3 mph 26.5 mph N/A   Overcast
9:53 AM 53.1 °F 37.9 °F 57% 29.40 in 10.0 mi West 23.0 mph 31.1 mph N/A   Overcast
10:53 AM 53.1 °F 37.9 °F 57% 29.41 in 10.0 mi West 13.8 mph 35.7 mph N/A   Overcast
11:53 AM 55.9 °F 39.0 °F 53% 29.40 in 10.0 mi West 15.0 mph 32.2 mph 0.00 in   Mostly Cloudy
12:53 PM 57.9 °F 37.9 °F 47% 29.40 in 10.0 mi West 24.2 mph 38.0 mph N/A   Mostly Cloudy
1:53 PM 55.9 °F 39.0 °F 53% 29.43 in 10.0 mi West 17.3 mph 33.4 mph N/A   Overcast
2:53 PM 57.0 °F 39.9 °F 53% 29.44 in 10.0 mi West 17.3 mph 32.2 mph N/A   Overcast
3:53 PM 57.0 °F 39.0 °F 51% 29.46 in 10.0 mi West 13.8 mph 32.2 mph N/A   Overcast
4:53 PM 55.9 °F 39.0 °F 53% 29.49 in 10.0 mi West 17.3 mph 28.8 mph N/A   Overcast
5:53 PM 55.0 °F 39.0 °F 55% 29.52 in 10.0 mi West 15.0 mph 28.8 mph N/A   Overcast
6:53 PM 55.0 °F 39.0 °F 55% 29.55 in 10.0 mi West 16.1 mph 28.8 mph N/A   Overcast
7:53 PM 54.0 °F 39.0 °F 57% 29.57 in 10.0 mi WNW 15.0 mph 24.2 mph N/A   Overcast
8:53 PM 53.1 °F 39.9 °F 61% 29.61 in 10.0 mi West 13.8 mph 23.0 mph N/A   Overcast
9:53 PM 53.1 °F 39.9 °F 61% 29.63 in 10.0 mi WNW 10.4 mph 25.3 mph N/A   Overcast
10:53 PM 53.1 °F 39.0 °F 59% 29.65 in 10.0 mi WNW 13.8 mph 24.2 mph N/A   Overcast
11:53 PM 52.0 °F 39.0 °F 61% 29.67 in 10.0 mi WNW 11.5 mph 16.1 mph N/A   Overcast